Weather in Zavivalovka

Russia / Penza Oblast     52°53′46″N   43°59′41″E
temp.,
°C
wind,
m/s
gust,
m/s
humid.,
%
clouds,
%
prec.,
mm/h
press.,
hPa
HPBL,
m
15 may, sat
sat1500:00+18se41477100 0.0 1015276
03:00+17sse5156554 0.0 1015314
06:00+16sse6166494 0.0 1015348
09:00+21s71557100 0.0 1015615
12:00+25sse814495 0.0 10151097
15:00+26s7145156 0.0 10151594
18:00+23s51260100 0.0 1014438
21:00+18sse487321 0.0 1014134
16 may, sun
sun1600:00+16s237930 0.0 101527
03:00+15wsw11859 0.0 101511
06:00+17ene0083100 0.0 101641
09:00+21se2369100 0.0 1016386
12:00+24s5850100 0.0 10161112
15:00+25ssw584376 0.0 10151399
18:00+23s356235 0.0 1015128
21:00+19sse226518 0.0 101511
17 may, mon
mon1700:00+17se226926 0.0 101612
03:00+16se33725 0.0 101632
06:00+17se367383 0.0 1016108
09:00+23sse5115196 0.0 1016497
12:00+25sse694399 0.0 1016846
15:00+26se584586 0.0 1016993
18:00+23se3861100 0.0 1015207
21:00+19ese485971 0.0 1015101
18 may, tue
tue1800:00+17se41358100 0.0 1015201
03:00+16ese41253100 0.0 1015179
06:00+16se4116497 0.0 1014195
09:00+22se6104966 0.0 1013377
12:00+26se7113911 0.0 10131048
15:00+27se71245100 0.0 10121375
18:00+24se614535 0.0 1011372
21:00+21ese7184918 0.0 1011364
19 may, wed
wed1900:00+20se71941100 0.0 1010455
03:00+19se6164790 0.0 1010351
06:00+17se51264100 0.0 1010287
09:00+22sse7125288 0.0 1009545
12:00+25sse8154376 0.0 10091605
15:00+21ssw4968100 0.0 1009846
18:00+21ssw59705 0.4 1009759
21:00+16sw5128798 0.8 1011489